TimeMDT,TemperatureF,Dew PointF,Humidity,Sea Level PressureIn,VisibilityMPH,Wind Direction,Wind SpeedMPH,Gust SpeedMPH,PrecipitationIn,Events,Conditions,WindDirDegrees,DateUTC
12:53 AM,27.0,16.0,63,30.00,10.0,SSW,13.8,-,N/A,,Clear,210,2013-03-22 06:53:00
1:53 AM,26.1,17.1,69,29.99,10.0,SW,9.2,-,N/A,,Clear,230,2013-03-22 07:53:00
2:53 AM,24.1,17.1,75,29.99,10.0,South,10.4,-,N/A,,Clear,190,2013-03-22 08:53:00
3:53 AM,25.0,17.1,72,29.98,10.0,SW,10.4,-,N/A,,Clear,220,2013-03-22 09:53:00
4:53 AM,26.1,17.1,69,29.96,10.0,SW,10.4,-,N/A,,Mostly Cloudy,220,2013-03-22 10:53:00
5:53 AM,27.0,19.9,75,29.95,10.0,WSW,6.9,-,N/A,,Overcast,250,2013-03-22 11:53:00
6:53 AM,27.0,19.9,75,29.95,6.0,WSW,11.5,-,0.00,Snow,Light Snow,240,2013-03-22 12:53:00
7:53 AM,26.1,19.9,78,29.97,10.0,WSW,18.4,28.8,0.00,Snow,Light Snow,250,2013-03-22 13:53:00
8:53 AM,26.1,19.0,75,29.98,8.0,WSW,17.3,-,0.00,Snow,Light Snow,250,2013-03-22 14:53:00
9:53 AM,27.0,21.0,78,29.99,4.0,WSW,17.3,-,0.00,Snow,Light Snow,250,2013-03-22 15:53:00
10:53 AM,28.0,21.9,78,29.99,2.0,WSW,15.0,-,0.01,Snow,Light Snow,250,2013-03-22 16:53:00
10:57 AM,28.4,21.2,74,29.91,2.0,WSW,17.3,-,0.00,Snow,Light Snow,240,2013-03-22 16:57:00
11:40 AM,30.2,23.0,75,29.91,4.0,WSW,18.4,-,0.00,Snow,Light Snow,240,2013-03-22 17:40:00
11:53 AM,30.0,21.9,72,29.99,9.0,SW,19.6,-,0.00,Snow,Light Snow,230,2013-03-22 17:53:00
12:53 PM,33.1,19.0,56,29.97,10.0,WSW,12.7,20.7,0.00,,Mostly Cloudy,240,2013-03-22 18:53:00
1:12 PM,30.2,24.8,80,29.90,0.8,WNW,15.0,20.7,0.00,Snow,Light Snow,300,2013-03-22 19:12:00
1:16 PM,28.4,24.8,86,29.91,0.2,NW,18.4,-,0.00,Snow,Heavy Snow,310,2013-03-22 19:16:00
1:23 PM,26.6,23.0,86,29.91,0.2,WNW,12.7,-,0.00,Fog-Snow,Heavy Snow,290,2013-03-22 19:23:00
1:51 PM,26.6,23.0,86,29.91,0.8,NNW,19.6,25.3,0.02,Snow,Light Snow,340,2013-03-22 19:51:00
1:53 PM,27.0,23.0,85,29.99,0.5,NNW,19.6,-,0.02,Fog-Snow,Snow,330,2013-03-22 19:53:00
2:42 PM,28.4,23.0,80,29.91,2.5,NW,9.2,-,0.01,Snow,Light Snow,320,2013-03-22 20:42:00
2:53 PM,28.0,23.0,81,30.00,6.0,NW,11.5,-,0.01,,Haze,310,2013-03-22 20:53:00
3:53 PM,30.0,21.9,72,29.99,8.0,West,8.1,-,0.00,,Overcast,280,2013-03-22 21:53:00
4:53 PM,30.9,24.1,76,30.00,10.0,WSW,12.7,-,N/A,,Mostly Cloudy,240,2013-03-22 22:53:00
5:53 PM,28.9,23.0,78,30.02,10.0,WSW,13.8,-,N/A,,Overcast,240,2013-03-22 23:53:00
6:53 PM,27.0,21.9,81,30.04,10.0,SW,12.7,-,N/A,,Mostly Cloudy,220,2013-03-23 00:53:00
7:12 PM,26.6,19.4,74,29.96,10.0,WSW,13.8,-,N/A,,Scattered Clouds,240,2013-03-23 01:12:00
7:53 PM,25.0,21.0,85,30.07,10.0,WSW,10.4,-,N/A,,Mostly Cloudy,240,2013-03-23 01:53:00
8:53 PM,26.1,21.0,81,30.09,10.0,WSW,9.2,-,N/A,,Mostly Cloudy,240,2013-03-23 02:53:00
9:53 PM,26.1,21.9,84,30.10,7.0,SW,11.5,-,0.00,Snow,Light Snow,230,2013-03-23 03:53:00
10:19 PM,24.8,21.2,86,30.02,10.0,WSW,12.7,-,0.00,,Scattered Clouds,240,2013-03-23 04:19:00
10:53 PM,25.0,21.0,85,30.12,10.0,SW,10.4,-,0.00,,Mostly Cloudy,230,2013-03-23 04:53:00
11:53 PM,24.1,21.0,88,30.12,7.0,SSW,10.4,-,0.00,Snow,Light Snow,210,2013-03-23 05:53:00